Tracking 19181 objects as of 18-Jun-2018
HD Live streaming from Space Station
objects crossing your sky now

NOAA 4

Track NOAA 4 now!
10-day predictions
NOAA 4 is classified as:


NORAD ID: 7529
Int'l Code: 1974-089A
Perigee: 1,451.3 km
Apogee: 1,465.9 km
Inclination: 101.7 °
Period: 114.9 minutes
Semi major axis: 7829 km
RCS: 3.1879 m2 (large)
Launch date: November 15, 1974
Source: United States (US)
Launch site: AIR FORCE WESTERN TEST RANGE (AFWTR)
aabbcc
Your satellite tracking list
Your tracking list is empty




NASA's NSSDC Master Catalog

Two Line Element Set (TLE):
1  7529U 74089A   18168.49826619 -.00000036 +00000-0 +55915-4 0  9999
2  7529 101.6960 135.8988 0009371 035.5193 073.6149 12.53120016993558
Source of the keplerian elements: AFSPC